Location: Newark
(58.8333°N, 23.5833°E)
Time: 23:11:22
(UTC+00:00)

METEOR M2 - Pass Details

Date: 15 December 2019
Orbit: 819 x 827 km, 98.5° (Epoch: 20 January)

Event Time Altitude Azimuth Distance (km) Brightness Sun altitude
Exits shadow 16:19:12 27° 36° (NE) 1,526 ? -19.6°
Drops below altitude 10° 16:22:55 10° 354° (N) 2,431 ? -20.0°
Sets 16:25:32 0° 344° (NNW) 3,367 ? -20.4°
